Regional Weather Roundup
Issued by NWS Raleigh/Durham, NC

Home | Current Version | Previous Version | Text Only | Print | Product List | Glossary On
Versions: 1 2 3 4 5 6 7 8 9 10 11 12 13 14 15 16 17 18 19 20 21 22 23 24 25 26 27 28 29 30 31 32 33 34 35 36 37 38 39 40 41 42 43 44 45 46 47 48 49 50
000
ASUS42 KRAH 242210
RWRRAH
NORTH CAROLINA WEATHER ROUNDUP
NATIONAL WEATHER SERVICE RALEIGH NC
600 PM EDT SUN JUL 24 2016

NOTE: "FAIR" INDICATES FEW OR NO CLOUDS BELOW 12,000 FEET WITH NO
SIGNIFICANT WEATHER AND/OR OBSTRUCTIONS TO VISIBILITY.

NCZ001-053-055-056-065-067-242300-
WESTERN NORTH CAROLINA

CITY           SKY/WX    TMP DP  RH WIND       PRES   REMARKS
ASHEVILLE      CLOUDY    88  67  49 SW9       30.10S
JEFFERSON      MOSUNNY   82  65  56 SE3       30.17R
MORGANTON      CLOUDY    92  69  45 S3        30.08R HX  97
HICKORY        CLOUDY    92  70  48 VRB3      30.03S HX  97
RUTHERFORDTON    N/A     91  69  46 CALM      30.03S HX  96
MOUNT AIRY     SUNNY     93  72  50 S5        30.05S HX 101
BOONE          SUNNY    N/A N/A N/A SE5       30.17S
$$

NCZ021-022-025-041-071-084-088-242300-
CENTRAL NORTH CAROLINA

CITY           SKY/WX    TMP DP  RH WIND       PRES   REMARKS
CHARLOTTE      PTSUNNY   95  65  37 W8        30.01S HX  97
GREENSBORO     CLOUDY    95  61  32 S7        30.01S HX  95
WINSTON-SALEM  PTSUNNY   93  68  43 SE6       30.02S HX  97
RALEIGH-DURHAM PTSUNNY   94  71  47 S9        29.99S HX 101
FORT BRAGG     SUNNY     95  70  44 VRB6      29.98S HX 101
FAYETTEVILLE   SUNNY     95  70  44 VRB3      29.98S HX 101
BURLINGTON     SUNNY     94  71  47 SE5       30.00R HX 101
LAURINBURG     SUNNY     95  72  47 S8        29.99S HX 103
$$

NCZ011-015-027-028-043-044-047-080-103-242300-
NORTHEASTERN NORTH CAROLINA

CITY           SKY/WX    TMP DP  RH WIND       PRES   REMARKS
ROCKY MT-WILSO SUNNY     93  75  55 SW7       29.99S HX 104
GREENVILLE     SUNNY     95  75  52 SW5       30.00S HX 107
WASHINGTON     SUNNY     92  74  54 SW7       29.98S HX 101
ELIZABETH CITY MOSUNNY   93  75  55 S13       29.97S HX 104
MANTEO           N/A     90  81  74 SW15      29.98S HX 108
CAPE HATTERAS  SUNNY     87  78  74 SW9       30.02R HX 100
$$

NCZ078-087-090-091-093-098-101-242300-
SOUTHEASTERN NORTH CAROLINA

CITY           SKY/WX    TMP DP  RH WIND       PRES   REMARKS
LUMBERTON      SUNNY     94  73  50 W6        29.98S HX 103
GOLDSBORO      SUNNY     96  68  40 S6        29.97S HX 101
KINSTON        SUNNY     95  73  49 S5        29.99F HX 105
KENANSVILLE    NOT AVBL
NEW BERN       SUNNY     91  75  59 S10       30.01S HX 101
CHERRY POINT   MOSUNNY   89  75  63 S10       30.02S HX  99
BEAUFORT       SUNNY     86  77  74 SW13      30.02R HX  97
JACKSONVILLE   SUNNY     89  73  59 S12       30.00S HX  97
WILMINGTON     MOSUNNY   90  76  63 S8        30.01S HX 101
$$




USA.gov is the U.S. government's official web portal to all federal, state and local government web resources and services.